Regional Weather Roundup
Issued by NWS

Home | Current Version | Previous Version | Text Only | Print | Product List | Glossary On
Versions: 1 2 3 4 5 6 7 8 9 10 11 12 13 14 15 16 17 18 19 20 21 22 23 24 25 26 27 28 29 30 31 32 33 34 35 36 37 38 39 40 41 42 43 44 45 46 47 48 49 50
000
ASUS43 KLMK 241910
RWRKY
KENTUCKY REGIONAL WEATHER ROUNDUP
NATIONAL WEATHER SERVICE LOUISVILLE KY
300 PM EDT MON JUL 24 2017

NOTE "FAIR" INDICATES FEW OR NO CLOUDS BELOW 12,000 FEET
WITH NO SIGNIFICANT WEATHER AND/OR OBSTRUCTIONS TO VISIBILITY.

KYZ001>023-026-027-061>063-070>075-242000-
WESTERN AND SOUTH CENTRAL KENTUCKY

CITY           SKY/WX    TMP DP  RH WIND       PRES   REMARKS
PADUCAH        CLOUDY    92  71  50 CALM      29.94S HX  98
HENDERSON      MOSUNNY   89  76  65 NW7       29.94S HX 100
OWENSBORO      MOSUNNY   90  74  59 SW7       29.93F HX  99
HOPKINSVILLE   PTSUNNY   88  74  63 SW6       29.96S HX  96
BOWLING GREEN  CLOUDY    91  70  49 W9        29.96S HX  96
GLASGOW        CLOUDY    90  69  51 SW3       29.97S HX  94
$$

KYZ024-025-028>034-038-045-046-053-242000-
NORTH CENTRAL KENTUCKY

CITY           SKY/WX    TMP DP  RH WIND       PRES   REMARKS
LOUISVILLE/SDF PTSUNNY   90  68  48 W9        29.93R HX  94
LOUISVILLE/LOU PTSUNNY   91  69  48 W7        29.93S HX  96
FORT KNOX      CLOUDY    87  71  59 SW8G16    29.93F HX  93
$$

KYZ035>037-039>044-047>052-055>060-089>105-242000-
NORTHEAST KENTUCKY

CITY           SKY/WX    TMP DP  RH WIND       PRES   REMARKS
LEXINGTON      MOSUNNY   86  71  60 SW8       29.95F HX  91
COVINGTON      MOSUNNY   83  66  56 N8        29.96R
FRANKFORT      CLOUDY    86  68  54 NW6       29.94S
$$

KYZ054-064>069-076>088-106>120-242000-
SOUTHEAST KENTUCKY

CITY           SKY/WX    TMP DP  RH WIND       PRES   REMARKS
JACKSON        CLOUDY    82  70  66 VRB3      29.97F
LONDON         CLOUDY    87  63  44 W6        29.99S
SOMERSET       MOSUNNY   86  68  54 SW3G17    29.98F
MIDDLESBORO    MOSUNNY   86  69  56 W3        30.00S HX  90
MONTICELLO     PTCLDY    86  75  69 W15       30.01  HX  95
$$




USA.gov is the U.S. government's official web portal to all federal, state and local government web resources and services.